Location: Corralito
(10.2667°N, 66.9500°W)
Time: 23:34:23
(UTC+00:00)

YAOGAN 3 - Pass Details

Date: 06 December 2023
Orbit: 615 x 616 km, 97.9° (Epoch: 01 March)

Event Time Altitude Azimuth Distance (km) Brightness Sun altitude
Rises 00:26:25 0° 205° (SSW) 2,873 8.6 -33.3°
Reaches altitude 10° 00:29:45 10° 234° (SW) 1,968 7.9 -34.1°
Maximum altitude 00:31:40 13° 260° (W) 1,787 7.6 -34.6°
Drops below altitude 10° 00:33:35 10° 287° (WNW) 1,967 7.7 -35.0°
Sets 00:36:56 0° 316° (NW) 2,872 8.2 -35.8°
